Regional Weather Roundup
Issued by NWS Upton, NY

Current Version | Previous Version | Text Only | Print | Product List | Glossary Off
Versions: 1 2 3 4 5 6 7 8 9 10 11 12 13 14 15 16 17 18 19 20 21 22 23 24 25 26 27 28 29 30 31 32 33 34 35 36 37 38 39 40 41 42 43 44 45 46 47 48 49
526 ASUS41 KOKX 122304 RWROKX REGIONAL WEATHER ROUNDUP NATIONAL WEATHER SERVICE NEW YORK NY 600 PM EST FRI FEB 12 2016 NOTE: "FAIR" INDICATES FEW OR NO CLOUDS BELOW 12,000 FEET WITH NO SIGNIFICANT WEATHER AND/OR OBSTRUCTIONS TO VISIBILITY. NYZ071-072-176-178-NJZ106-104-130000- NEW YORK CITY METRO AREA CITY SKY/WX TMP DP RH WIND PRES REMARKS CENTRAL PARK CLOUDY 24 2 38 VRB7 30.03F WCI 16 LAGUARDIA APRT CLOUDY 25 0 33 SW12G18 30.02F WCI 14 KENNEDY INTL CLOUDY 26 4 38 SW13 30.04F WCI 15 NEWARK/LIBERTY CLOUDY 25 3 38 W9 30.02F WCI 15 BRNX BOT. GARD N/A 27 5 39 SW7 30.00F WCI 19 TETERBORO CLOUDY 27 2 34 S9 30.02F WCI 18 $$ NYZ177-179-078>081-130000- LONG ISLAND NEW YORK CITY SKY/WX TMP DP RH WIND PRES REMARKS FARMINGDALE CLOUDY 25 9 50 SW7 30.02F WCI 17 ISLIP CLOUDY 24 9 52 SW6 30.02F WCI 17 SHIRLEY CLOUDY 23 10 57 CALM 30.04F RIVERHEAD N/A 25 7 46 NW3 30.01S WESTHAMPTON CLOUDY 22 10 60 W5 30.04F WCI 16 EAST HAMPTON CLOUDY 23 10 57 CALM 30.03F MONTAUK POINT N/A 24 12 60 SW7 30.04F WCI 16 $$ NYZ052-065-067-130000- HUDSON VALLEY CITY SKY/WX TMP DP RH WIND PRES REMARKS WHITE PLAINS CLOUDY 22 2 42 VRB6 29.98F WCI 14 NEWBURGH CLOUDY 21 5 49 W12 29.97F WCI 9 MONTGOMERY CLOUDY 22 -1 36 SW12 29.96F WCI 10 POUGHKEEPSIE CLOUDY 25 5 42 SW12 29.99S WCI 14 ALBANY CLOUDY 23 2 40 S12 29.94S WCI 12 $$ NJZ001-105-106-008-010-013-015-019>022-104-130000- NEW JERSEY CITY SKY/WX TMP DP RH WIND PRES REMARKS NEWARK/LIBERTY CLOUDY 25 3 38 W9 30.02F WCI 15 TETERBORO CLOUDY 27 2 34 S9 30.02F WCI 18 CALDWELL CLOUDY 23 -1 35 W5 30.02F WCI 17 MORRISTOWN NOT AVBL SOMERVILLE CLOUDY 23 3 42 SW5 30.00F WCI 17 SUSSEX CLOUDY 21 2 43 SW8 29.97F WCI 11 ANDOVER N/A 20 5 52 SW5 29.98F WCI 13 TRENTON CLOUDY 23 3 42 W5 30.02F WCI 17 MILLVILLE CLOUDY 25 9 50 W6 30.03F WCI 18 ATLANTIC CITY CLOUDY 26 4 38 W5 30.03F WCI 20 WRIGHTSTOWN MOCLDY 23 3 41 W6 30.00F WCI 16 TOMS RIVER CLOUDY 25 3 39 W7 30.03F WCI 17 BELMAR CLOUDY 25 0 33 W9 30.01F WCI 15 $$ PAZ047>061-062-071-130000- EASTERN PENNSYLVANIA CITY SKY/WX TMP DP RH WIND PRES REMARKS PHILADELPHIA CLOUDY 24 7 48 S7 30.04F WCI 16 ALLENTOWN CLOUDY 21 7 54 SW10 30.00F WCI 10 SCRANTON CLOUDY 18 4 54 SW8 29.92F WCI 8 $$ CTZ002-004>006-009-010-012-RIZ004-006-007-MAZ004-011-015-130000- SOUTHERN NEW ENGLAND IN CT CITY SKY/WX TMP DP RH WIND PRES REMARKS BRADLEY INTL CLOUDY 21 4 47 S8 29.99F WCI 11 HARTFORD CLOUDY 23 4 44 S9 30.02F WCI 13 DANBURY CLOUDY 22 2 42 S8 29.99F WCI 12 WTRBRY/OXFORD CLOUDY 19 0 42 SW7 29.97F WCI 10 BRIDGEPORT CLOUDY 25 8 48 S13 30.02F WCI 14 MERIDEN CLOUDY 23 6 48 S7 30.02F WCI 15 NEW HAVEN CLOUDY 23 8 52 S9G18 30.02F WCI 13 CHESTER FAIR 23 7 50 S5 30.01S WCI 17 GROTON CLOUDY 23 9 55 W8 30.04F WCI 14 WILLIMANTIC CLOUDY 22 3 44 S5 30.02F WCI 16 IN RI CITY SKY/WX TMP DP RH WIND PRES REMARKS PROVIDENCE CLOUDY 22 6 50 SW9 30.04F WCI 12 BLOCK ISLAND CLOUDY 25 10 54 SW9 30.01F WCI 15 WESTERLY CLOUDY 23 7 50 SW6 30.04F WCI 16 IN MA CITY SKY/WX TMP DP RH WIND PRES REMARKS BOSTON CLOUDY 22 4 46 S13 30.03F WCI 10 WORCESTER CLOUDY 18 -1 43 SW8 29.93F WCI 8 WESTFIELD CLOUDY 21 2 43 S10 29.98F WCI 10 PROVINCETOWN CLOUDY 23 10 57 SW9 30.06F WCI 13 NANTUCKET CLOUDY 25 11 55 SW12 30.06F WCI 14 $$ ANZ330-335-338-340-345-350-353-355-130000- COASTAL MARINE OBSERVATIONS STATION/POSITION TIME SKY/WX TEMP WIND PRES VSBY WAVE AIR SEA DIR/SP/G HT/PER (UTC) (F) (DEG/KT/KT) (MB) (MI) (FT/S) NY HARB ENTRANCE 2150 27 42 230/ 10/ 14 1017.2 1/11 4S FIRE IS NOT AVBL 20S FIRE ISLAND 2150 25 41 220/ 12/ 16 1017.8 2/10 GREAT SOUTH BAY NOT AVBL 23SW MTP 2250 27 45 240/ 8/ 12 1016.8 3/11 HUDSON CANYON 2150 29 48 1017.7 3/11 KINGS POINT 2200 25 37 240/ 12/ 14 1016.4 EXECUTION ROCKS NOT AVBL CENTRAL LI SOUND 2200 24 200/ 12/ 16 N/A 1/ 2 EASTERN LI SOUND 2200 26 41 230/ 12/ 16 N/A ROBBINS REEF 2200 24 230/ 13/ 15 1016.4 $$ >>>>>>>>>>>>>>>>>>>>>>>>>>>> KEY <<<<<<<<<<<<<<<<<<<<<<<<<<< > < > SKY/WX - SKY CONDITION/PRESENT WEATHER < > TMP - TEMPERATURE IN FAHRENHEIT < > DP - DEWPOINT IN FAHRENHEIT < > RH - RELATIVE HUMIDITY IN PERCENT < > WIND - DIRECTION AND SPEED IN MPH < > PRES - MEAN SEA LEVEL PRESSURE IN INCHES OF HG < > WCI - WIND CHILL INDEX < > VSB - VISIBILITY IN MILES < > HX - HEAT INDEX < > TC - TEMPERATURE IN CELSIUS < > VRB - VARIABLE WIND DIRECTION < > < >>>>>>>>>>>>>>>>>>>>>>>>>>>> KEY <<<<<<<<<<<<<<<<<<<<<<<<<<<

USA.gov is the U.S. government's official web portal to all federal, state and local government web resources and services.